sat.trackr.live / text

‹ back to catalog

STARLINK-11180 [DTC]

NORAD 60185 · 2024-124C

PAYLOAD ACTIVE UNKNOWN

§ Identity

Operator
Country
US
Launch date
2024-07-03
Launch site
AFETR
Launch vehicle
Mass (kg)
RCS (m²)

Purposes: comms

External: N2YO · Heavens-Above · Gunter

§ Orbital elements

Epoch: 2026-05-25T00:13:44.218848Z

Period
91.74 min
Inclination
53.1576°
Eccentricity
0.0000913
Mean motion
15.69709690 rev/d
Perigee alt
359.1 km
Apogee alt
360.3 km
Semi-major
6,737.9 km
B*
1.2048e-5
RAAN
144.8318°
Arg perigee
90.2916°
Mean anomaly
269.8207°
Rev number
10,852

§ Raw data

STARLINK-11180 [DTC]1 60185U 24124C   26145.00953957  .00000871  00000+0  12048-4 0  99932 60185  53.1576 144.8318 0000913  90.2916 269.8207 15.69709690108520

JSON: /api/v1/satellites/60185 · /tle

For live sub-satellite position, see the globe view (requires WebGL).

§ Visibility from observer

Set your observer location to see the next 7 days of passes ≥ 10°. The values pass through the URL so the page stays shareable.

No JS? Fill the form by hand. The geolocation button needs JavaScript.